| time (UTC) | temp F | wind direction | speed MPH | gust MPH | rain 1hr in | rain 24hr in | rain mn in | humidity % | barometer mb |
| 20260503203104 | 73 | 345 | 8.0 | 15.0 | 0.00 | 0.00 | 0.00 | 22 | 1005.8 |
| 20260503201546 | 72 | 273 | 1.0 | 10.0 | 0.00 | 0.00 | 0.00 | 21 | 1006.0 |
| 20260503200027 | 73 | 273 | 3.0 | 9.0 | 0.00 | 0.00 | 0.00 | 21 | 1006.2 |
| 20260503194526 | 72 | 275 | 0.0 | 14.0 | 0.00 | 0.00 | 0.00 | 21 | 1006.3 |
| 20260503193012 | 72 | 321 | 1.0 | 7.0 | 0.00 | 0.00 | 0.00 | 23 | 1006.7 |
| 20260503191510 | 71 | 301 | 2.0 | 12.0 | 0.00 | 0.00 | 0.00 | 25 | 1006.9 |
| 20260503190008 | 69 | 258 | 2.0 | 13.0 | 0.00 | 0.00 | 0.00 | 27 | 1007.3 |
| 20260503184508 | 69 | 250 | 0.0 | 6.0 | 0.00 | 0.00 | 0.00 | 29 | 1007.6 |
| 20260503183005 | 68 | 265 | 1.0 | 10.0 | 0.00 | 0.00 | 0.00 | 29 | 1007.9 |
| 20260503181504 | 68 | 279 | 0.0 | 5.0 | 0.00 | 0.00 | 0.00 | 30 | 1008.3 |
| 20260503180002 | 68 | 5 | 0.0 | 7.0 | 0.00 | 0.00 | 0.00 | 31 | 1008.5 |
| 20260503174559 | 67 | 236 | 0.0 | 4.0 | 0.00 | 0.00 | 0.00 | 32 | 1008.8 |
| 20260503173055 | 66 | 217 | 0.0 | 4.0 | 0.00 | 0.00 | 0.00 | 34 | 1008.9 |
| 20260503171545 | 64 | 187 | 0.0 | 7.0 | 0.00 | 0.00 | 0.00 | 37 | 1009.2 |
| 20260503081529 | 51 | 272 | 0.0 | 0.0 | 0.00 | 0.00 | 0.00 | 56 | 1010.7 |
| 20260503071605 | 54 | 281 | 0.0 | 0.0 | 0.00 | 0.00 | 0.00 | 49 | 1010.7 |
| 20260503070105 | 54 | 287 | 0.0 | 0.0 | 0.00 | 0.00 | 0.00 | 48 | 1010.7 |
| 20260503054518 | 58 | 294 | 0.0 | 1.0 | 0.00 | 0.00 | 0.00 | 40 | 1010.5 |
| 20260503053017 | 60 | 328 | 0.0 | 10.0 | 0.00 | 0.00 | 0.00 | 39 | 1010.6 |
| 20260503051513 | 60 | 360 | 0.0 | 8.0 | 0.00 | 0.00 | 0.00 | 40 | 1010.4 |
| 20260503050012 | 61 | 38 | 1.0 | 13.0 | 0.00 | 0.00 | 0.00 | 40 | 1010.1 |
| 20260503044522 | 61 | 56 | 1.0 | 11.0 | 0.00 | 0.00 | 0.00 | 39 | 1010.2 |
| 20260503043011 | 61 | 70 | 7.0 | 18.0 | 0.00 | 0.00 | 0.00 | 39 | 1010.3 |
| 20260503041558 | 61 | 41 | 2.0 | 11.0 | 0.00 | 0.00 | 0.00 | 39 | 1010.3 |
| 20260503040100 | 61 | 51 | 0.0 | 10.0 | 0.00 | 0.00 | 0.00 | 39 | 1010.4 |
| 20260503034555 | 61 | 51 | 0.0 | 10.0 | 0.00 | 0.00 | 0.00 | 39 | 1010.2 |
| 20260503033106 | 61 | 11 | 2.0 | 9.0 | 0.00 | 0.00 | 0.00 | 38 | 1010.3 |
| 20260503031551 | 62 | 43 | 0.0 | 11.0 | 0.00 | 0.00 | 0.00 | 37 | 1010.0 |
| 20260503030051 | 63 | 45 | 7.0 | 19.0 | 0.00 | 0.00 | 0.00 | 36 | 1009.8 |
| 20260503024548 | 63 | 17 | 7.0 | 20.0 | 0.00 | 0.00 | 0.00 | 35 | 1009.8 |
| 20260503023055 | 63 | 65 | 10.0 | 21.0 | 0.00 | 0.00 | 0.00 | 33 | 1009.5 |
| 20260503021528 | 64 | 13 | 9.0 | 25.0 | 0.00 | 0.00 | 0.00 | 33 | 1009.4 |
| 20260503020024 | 65 | 355 | 6.0 | 21.0 | 0.00 | 0.00 | 0.00 | 32 | 1009.3 |
| 20260503014522 | 66 | 29 | 10.0 | 19.0 | 0.00 | 0.00 | 0.00 | 32 | 1009.2 |
| 20260503013019 | 66 | 61 | 3.0 | 17.0 | 0.00 | 0.00 | 0.00 | 32 | 1009.1 |
| 20260503011515 | 67 | 67 | 5.0 | 18.0 | 0.00 | 0.00 | 0.00 | 31 | 1009.1 |
| 20260503010019 | 68 | 44 | 7.0 | 18.0 | 0.00 | 0.00 | 0.00 | 30 | 1009.1 |
| 20260503004508 | 69 | 57 | 9.0 | 20.0 | 0.00 | 0.00 | 0.00 | 29 | 1009.1 |
| 20260503003004 | 70 | 26 | 10.0 | 21.0 | 0.00 | 0.00 | 0.00 | 27 | 1009.2 |
| 20260503001545 | 71 | 88 | 5.0 | 21.0 | 0.00 | 0.00 | 0.00 | 27 | 1009.2 |
| 20260503000058 | 71 | 42 | 9.0 | 21.0 | 0.00 | 0.00 | 0.00 | 26 | 1009.3 |
| 20260502234524 | 73 | 46 | 3.0 | 12.0 | 0.00 | 0.00 | 0.00 | 19 | 1009.2 |
| 20260502233020 | 74 | 13 | 0.0 | 11.0 | 0.00 | 0.00 | 0.00 | 17 | 1009.3 |
| 20260502231522 | 74 | 23 | 0.0 | 8.0 | 0.00 | 0.00 | 0.00 | 17 | 1009.4 |
| 20260502230018 | 76 | 258 | 0.0 | 2.0 | 0.00 | 0.00 | 0.00 | 13 | 1009.5 |
| 20260502224515 | 75 | 243 | 2.0 | 12.0 | 0.00 | 0.00 | 0.00 | 13 | 1009.7 |
| 20260502223013 | 75 | 272 | 0.0 | 10.0 | 0.00 | 0.00 | 0.00 | 14 | 1009.9 |
| 20260502221510 | 75 | 257 | 2.0 | 10.0 | 0.00 | 0.00 | 0.00 | 13 | 1010.1 |
| 20260502220008 | 75 | 263 | 0.0 | 5.0 | 0.00 | 0.00 | 0.00 | 13 | 1010.4 |
| 20260502214555 | 75 | 322 | 0.0 | 4.0 | 0.00 | 0.00 | 0.00 | 13 | 1010.6 |
| 20260502213052 | 74 | 240 | 5.0 | 11.0 | 0.00 | 0.00 | 0.00 | 13 | 1010.8 |
| 20260502211554 | 75 | 301 | 2.0 | 8.0 | 0.00 | 0.00 | 0.00 | 13 | 1011.2 |
| 20260502210047 | 75 | 326 | 0.0 | 9.0 | 0.00 | 0.00 | 0.00 | 14 | 1011.5 |
| 20260502204544 | 74 | 61 | 0.0 | 9.0 | 0.00 | 0.00 | 0.00 | 15 | 1011.7 |